Location: Schommer Observatory
(40.5200°N, 74.4500°W)
Time: 02:41:08
(UTC-05:00)

Hubble Space Telescope - Pass Details

Date: 17 November 2017
Orbit: 537 x 541 km, 28.5° (Epoch: 19 November)

Event Time Altitude Azimuth Distance (km) Brightness Sun altitude
Rises 06:14:59 0° 232° (SW) 2,668 4.0 -6.4°
Reaches altitude 10° 06:18:07 10° 207° (SSW) 1,779 3.4 -5.9°
Maximum altitude 06:20:20 14° 174° (S) 1,527 3.5 -5.5°
Drops below altitude 10° 06:22:34 10° 141° (SE) 1,782 4.5 -5.1°
Sets 06:25:42 0° 116° (ESE) 2,674 7.2 -4.5°
